This is the latest recevied weather packets stored in our database for station/object KD7AWQ. If no packets are shown the sender has not sent any weather packets the latest 10 day(s).
| Time | Temp. | Humidity | Pressure | Rain* | Wind** | Luminosity | Snow |
|---|---|---|---|---|---|---|---|
| 1787960439 | 33.33° C | 24% | 1186.2 hPa | 0 mm | - | 177 W/m² | - |
| 1787960133 | 32.78° C | 24% | 1186.3 hPa | 0 mm | - | 167 W/m² | - |
| 1787959828 | 32.78° C | 23% | 1186.3 hPa | 0 mm | - | 166 W/m² | - |
| 1787959523 | 33.33° C | 25% | 1186.4 hPa | 0 mm | - | 159 W/m² | - |
| 1787959223 | 35° C | 21% | 1186.6 hPa | 0 mm | - | 154 W/m² | - |
| 1787958918 | 35° C | 20% | 1186.2 hPa | 0 mm | - | 145 W/m² | - |
| 1787958613 | 35° C | 20% | 1186.3 hPa | 0 mm | - | 130 W/m² | - |
| 1787958309 | 35° C | 21% | 1186.4 hPa | 0 mm | - | 121 W/m² | - |
| 1787958004 | 35° C | 21% | 1186.3 hPa | 0 mm | - | 115 W/m² | - |
| 1787957702 | 35° C | 22% | 1186.4 hPa | 0 mm | - | 114 W/m² | - |
| 1787957398 | 35° C | 22% | 1186.6 hPa | 0 mm | - | 100 W/m² | - |
| 1787957097 | 35° C | 21% | 1186.4 hPa | 0 mm | - | 83 W/m² | - |
| 1787956797 | 35.56° C | 22% | 1186.5 hPa | 0 mm | - | 72 W/m² | - |
| 1787956492 | 35.56° C | 22% | 1186.6 hPa | 0 mm | - | 77 W/m² | - |
| 1787956187 | 35.56° C | 21% | 1186.5 hPa | 0 mm | - | 92 W/m² | - |
| 1787955887 | 36.11° C | 21% | 1186.7 hPa | 0 mm | - | 114 W/m² | - |
| 1787955582 | 36.67° C | 20% | 1186.4 hPa | 0 mm | - | 153 W/m² | - |
| 1787955272 | 36.11° C | 19% | 1186.9 hPa | 0 mm | - | 227 W/m² | - |
| 1787954972 | 36.11° C | 18% | 1186.5 hPa | 0 mm | - | 430 W/m² | - |
| 1787954668 | 36.67° C | 17% | 1186.9 hPa | 0 mm | - | 948 W/m² | - |
| 1787954368 | 36.67° C | 18% | 1186.7 hPa | 0 mm | - | 637 W/m² | - |
| 1787954063 | 36.67° C | 18% | 1186.7 hPa | 0 mm | - | 996 W/m² | - |
| 1787953761 | 37.22° C | 18% | 1186.7 hPa | 0 mm | - | 987 W/m² | - |
| 1787953457 | 36.11° C | 19% | 1186.6 hPa | 0 mm | - | 971 W/m² | - |
| 1787953154 | 36.67° C | 19% | 1187.1 hPa | 0 mm | - | 1004 W/m² | - |
* Rain latest hour (hover to see other rain measurements)
** Current wind speed in m/s (hover to see current wind gust speed)